Location: Esterri de Aneo
(42.6284°N, 1.1223°E)
Time: 14:19:55
(UTC+00:00)

SL-16 R/B - Pass Details

Date: 11 December 2025
Orbit: 841 x 844 km, 71.0° (Epoch: 19 January)

Event Time Altitude Azimuth Distance (km) Brightness Sun altitude
Rises 19:34:05 0° 206° (SSW) 3,383 5.7 -34.4°
Reaches altitude 10° 19:36:31 10° 208° (SSW) 2,452 4.9 -34.8°
Enters shadow 19:38:23 22° 210° (SSW) 1,765 4.1 -35.2°
